Time,TemperatureF,DewpointF,PressureIn,WindDirection,WindDirectionDegrees,WindSpeedMPH,WindSpeedGustMPH,Humidity,HourlyPrecipIn,Conditions,Clouds,dailyrainin,SoftwareType,DateUTC
2013-02-26 00:00:00,43.0,33.9,30.21,NE,45,6.9,6.9,70,0.00,OVC,,0.00,WeatherDisplay:10.37,2013-02-26 05:00:00,
2013-02-26 00:05:00,43.0,33.9,30.21,NE,45,8.1,8.1,70,0.00,OVC,,0.00,WeatherDisplay:10.37,2013-02-26 05:05:00,
2013-02-26 00:10:00,43.0,33.9,30.21,NE,45,4.6,4.6,70,0.00,OVC,,0.00,WeatherDisplay:10.37,2013-02-26 05:10:00,
2013-02-26 00:15:00,42.8,34.0,30.21,NNE,22,5.8,5.8,71,0.00,OVC,,0.00,WeatherDisplay:10.37,2013-02-26 05:15:00,
2013-02-26 00:20:00,42.8,34.0,30.21,ENE,68,5.9,5.9,71,0.00,OVC,,0.00,WeatherDisplay:10.37,2013-02-26 05:20:00,
2013-02-26 00:25:00,42.8,33.7,30.21,ENE,68,5.8,7.8,70,0.00,OVC,,0.00,WeatherDisplay:10.37,2013-02-26 05:25:00,
2013-02-26 00:30:00,42.8,34.0,30.21,ESE,112,5.8,5.8,71,0.00,OVC,,0.00,WeatherDisplay:10.37,2013-02-26 05:30:00,
2013-02-26 00:35:00,42.8,34.0,30.21,ESE,112,9.2,9.2,71,0.00,OVC,,0.00,WeatherDisplay:10.37,2013-02-26 05:35:00,
2013-02-26 00:40:00,42.8,34.0,30.21,East,90,5.9,5.9,71,0.00,OVC,,0.00,WeatherDisplay:10.37,2013-02-26 05:40:00,
2013-02-26 00:45:00,42.8,34.0,30.21,North,0,4.6,4.6,71,0.00,OVC,,0.00,WeatherDisplay:10.37,2013-02-26 05:45:00,
2013-02-26 00:50:00,42.8,34.0,30.22,ENE,68,5.8,5.8,71,0.00,OVC,,0.00,WeatherDisplay:10.37,2013-02-26 05:50:00,
2013-02-26 00:55:00,42.8,34.0,30.22,NNE,22,6.2,6.2,71,0.00,OVC,,0.00,WeatherDisplay:10.37,2013-02-26 05:55:00,
2013-02-26 01:00:00,42.8,34.0,30.23,NE,45,4.6,4.6,71,0.00,OVC,,0.00,WeatherDisplay:10.37,2013-02-26 06:00:00,
2013-02-26 01:05:00,42.8,34.0,30.23,ENE,68,5.8,5.8,71,0.00,OVC,,0.00,WeatherDisplay:10.37,2013-02-26 06:05:00,
2013-02-26 01:10:00,42.8,34.0,30.23,NE,45,4.6,4.6,71,0.00,OVC,,0.00,WeatherDisplay:10.37,2013-02-26 06:10:00,
2013-02-26 01:15:00,42.8,34.0,30.23,North,0,4.6,4.6,71,0.00,OVC,,0.00,WeatherDisplay:10.37,2013-02-26 06:15:00,
2013-02-26 01:20:00,42.8,33.7,30.23,ENE,68,4.7,4.7,70,0.00,OVC,,0.00,WeatherDisplay:10.37,2013-02-26 06:20:00,
2013-02-26 01:25:00,42.6,33.9,30.22,North,0,5.8,6.4,71,0.00,OVC,,0.00,WeatherDisplay:10.37,2013-02-26 06:25:00,
2013-02-26 01:30:00,42.6,33.5,30.21,NE,45,4.9,4.9,70,0.00,OVC,,0.00,WeatherDisplay:10.37,2013-02-26 06:30:00,
2013-02-26 01:35:00,42.6,33.5,30.21,North,0,4.9,4.9,70,0.00,OVC,,0.00,WeatherDisplay:10.37,2013-02-26 06:35:00,
2013-02-26 01:40:00,42.6,33.9,30.21,ENE,68,6.9,6.9,71,0.00,OVC,,0.00,WeatherDisplay:10.37,2013-02-26 06:40:00,
2013-02-26 01:45:00,42.6,33.9,30.20,NE,45,6.9,6.9,71,0.00,OVC,,0.00,WeatherDisplay:10.37,2013-02-26 06:45:00,
2013-02-26 01:50:00,42.8,34.0,30.20,North,0,3.5,3.5,71,0.00,OVC,,0.00,WeatherDisplay:10.37,2013-02-26 06:50:00,
2013-02-26 01:55:00,42.8,34.0,30.20,NE,45,3.8,3.8,71,0.00,OVC,,0.00,WeatherDisplay:10.37,2013-02-26 06:55:00,
2013-02-26 02:00:00,42.8,34.0,30.20,NE,45,5.8,5.8,71,0.00,OVC,,0.00,WeatherDisplay:10.37,2013-02-26 07:00:00,
2013-02-26 02:05:00,42.8,34.0,30.20,NE,45,4.6,4.6,71,0.00,OVC,,0.00,WeatherDisplay:10.37,2013-02-26 07:05:00,
2013-02-26 02:10:00,42.8,34.4,30.20,NNW,338,3.5,3.6,72,0.00,OVC,,0.00,WeatherDisplay:10.37,2013-02-26 07:10:00,
2013-02-26 02:15:00,42.8,34.7,30.20,NE,45,4.3,4.3,73,0.00,OVC,,0.00,WeatherDisplay:10.37,2013-02-26 07:15:00,
2013-02-26 02:20:00,43.0,34.9,30.20,NE,45,4.6,4.6,73,0.00,OVC,,0.00,WeatherDisplay:10.37,2013-02-26 07:20:00,
2013-02-26 02:25:00,43.0,35.3,30.20,NE,45,5.8,5.8,74,0.00,OVC,,0.00,WeatherDisplay:10.37,2013-02-26 07:25:00,
2013-02-26 02:30:00,43.2,35.4,30.19,ENE,68,4.7,4.7,74,0.00,OVC,,0.00,WeatherDisplay:10.37,2013-02-26 07:30:00,
2013-02-26 02:35:00,43.2,35.4,30.18,East,90,4.7,4.7,74,0.00,OVC,,0.00,WeatherDisplay:10.37,2013-02-26 07:35:00,
2013-02-26 02:40:00,43.2,35.8,30.18,NE,45,6.9,6.9,75,0.00,OVC,,0.00,WeatherDisplay:10.37,2013-02-26 07:40:00,
2013-02-26 02:45:00,43.3,35.9,30.18,ENE,68,5.8,5.8,75,0.00,OVC,,0.00,WeatherDisplay:10.37,2013-02-26 07:45:00,
2013-02-26 02:50:00,43.5,36.5,30.18,NE,45,4.3,4.3,76,0.00,OVC,,0.00,WeatherDisplay:10.37,2013-02-26 07:50:00,
2013-02-26 02:55:00,43.5,36.8,30.18,ENE,68,6.0,6.0,77,0.00,OVC,,0.00,WeatherDisplay:10.37,2013-02-26 07:55:00,
2013-02-26 03:00:00,43.5,36.5,30.18,NNE,22,4.6,4.6,76,0.00,OVC,,0.00,WeatherDisplay:10.37,2013-02-26 08:00:00,
2013-02-26 03:05:00,43.5,36.8,30.18,NNE,22,6.9,6.9,77,0.00,OVC,,0.00,WeatherDisplay:10.37,2013-02-26 08:05:00,
2013-02-26 03:10:00,43.7,37.0,30.17,ENE,68,4.6,5.2,77,0.00,OVC,,0.00,WeatherDisplay:10.37,2013-02-26 08:10:00,
2013-02-26 03:15:00,43.7,37.3,30.16,ENE,68,8.1,8.1,78,0.00,OVC,,0.00,WeatherDisplay:10.37,2013-02-26 08:15:00,
2013-02-26 03:20:00,43.9,37.5,30.16,ENE,68,3.5,3.5,78,0.00,OVC,,0.00,WeatherDisplay:10.37,2013-02-26 08:20:00,
2013-02-26 03:25:00,44.1,38.0,30.15,North,0,5.8,5.8,79,0.00,OVC,,0.00,WeatherDisplay:10.37,2013-02-26 08:25:00,
2013-02-26 03:30:00,44.1,38.0,30.14,NNE,22,4.9,4.9,79,0.00,OVC,,0.00,WeatherDisplay:10.37,2013-02-26 08:30:00,
2013-02-26 03:35:00,44.2,38.1,30.14,ENE,68,4.6,4.6,79,0.00,OVC,,0.00,WeatherDisplay:10.37,2013-02-26 08:35:00,
2013-02-26 03:40:00,44.2,38.5,30.14,ENE,68,5.8,5.8,80,0.00,OVC,,0.00,WeatherDisplay:10.37,2013-02-26 08:40:00,
2013-02-26 03:45:00,44.4,39.0,30.14,NNE,22,8.1,8.1,81,0.00,OVC,,0.00,WeatherDisplay:10.37,2013-02-26 08:45:00,
2013-02-26 03:50:00,44.6,39.1,30.14,NE,45,4.6,4.6,81,0.00,OVC,,0.00,WeatherDisplay:10.37,2013-02-26 08:50:00,
2013-02-26 03:55:00,44.8,39.6,30.14,NE,45,6.9,6.9,82,0.00,OVC,,0.00,WeatherDisplay:10.37,2013-02-26 08:55:00,
2013-02-26 04:00:00,45.0,39.5,30.14,NE,45,5.8,5.8,81,0.00,OVC,,0.00,WeatherDisplay:10.37,2013-02-26 09:00:00,
2013-02-26 04:05:00,45.0,39.5,30.14,NNE,22,4.6,4.6,81,0.00,OVC,,0.00,WeatherDisplay:10.37,2013-02-26 09:05:00,
2013-02-26 04:10:00,45.1,40.0,30.14,East,90,6.9,6.9,82,0.00,OVC,,0.00,WeatherDisplay:10.37,2013-02-26 09:10:00,
2013-02-26 04:15:00,45.3,40.1,30.14,East,90,6.2,6.2,82,0.00,OVC,,0.00,WeatherDisplay:10.37,2013-02-26 09:15:00,
2013-02-26 04:20:00,45.5,40.3,30.14,NE,45,6.0,6.0,82,0.00,OVC,,0.00,WeatherDisplay:10.37,2013-02-26 09:20:00,
2013-02-26 04:25:00,45.7,40.5,30.14,East,90,5.8,5.8,82,0.00,OVC,,0.00,WeatherDisplay:10.37,2013-02-26 09:25:00,
2013-02-26 04:30:00,45.7,40.8,30.14,NE,45,3.5,3.5,83,0.00,OVC,,0.00,WeatherDisplay:10.37,2013-02-26 09:30:00,
2013-02-26 04:35:00,45.9,41.0,30.14,North,0,4.6,4.6,83,0.00,OVC,,0.00,WeatherDisplay:10.37,2013-02-26 09:35:00,
2013-02-26 04:40:00,46.0,41.2,30.14,NNE,22,5.4,5.4,83,0.00,OVC,,0.00,WeatherDisplay:10.37,2013-02-26 09:40:00,
2013-02-26 04:45:00,46.4,42.1,30.14,NE,45,8.1,8.1,85,0.00,OVC,,0.00,WeatherDisplay:10.37,2013-02-26 09:45:00,
2013-02-26 04:50:00,46.4,41.8,30.14,ENE,68,9.2,9.2,84,0.00,OVC,,0.00,WeatherDisplay:10.37,2013-02-26 09:50:00,
2013-02-26 04:55:00,46.8,42.5,30.14,ENE,68,8.5,8.5,85,0.00,OVC,,0.00,WeatherDisplay:10.37,2013-02-26 09:55:00,
2013-02-26 05:00:00,47.1,42.8,30.14,NNE,22,5.9,5.9,85,0.00,OVC,,0.00,WeatherDisplay:10.37,2013-02-26 10:00:00,
2013-02-26 05:05:00,47.3,43.0,30.13,ESE,112,9.2,9.2,85,0.00,OVC,,0.00,WeatherDisplay:10.37,2013-02-26 10:05:00,
2013-02-26 05:10:00,47.7,43.7,30.13,NE,45,8.1,8.1,86,0.00,OVC,,0.00,WeatherDisplay:10.37,2013-02-26 10:10:00,
2013-02-26 05:15:00,47.8,43.9,30.12,NE,45,9.2,9.2,86,0.00,OVC,,0.00,WeatherDisplay:10.37,2013-02-26 10:15:00,
2013-02-26 05:20:00,48.0,44.0,30.12,ESE,112,8.1,8.1,86,0.00,OVC,,0.00,WeatherDisplay:10.37,2013-02-26 10:20:00,
2013-02-26 05:25:00,48.4,44.7,30.11,ENE,68,10.4,10.4,87,0.00,OVC,,0.00,WeatherDisplay:10.37,2013-02-26 10:25:00,
2013-02-26 05:30:00,48.6,44.6,30.11,ENE,68,11.5,11.5,86,0.00,OVC,,0.00,WeatherDisplay:10.37,2013-02-26 10:30:00,
2013-02-26 05:35:00,48.7,45.0,30.11,ESE,112,10.4,10.4,87,0.00,OVC,,0.00,WeatherDisplay:10.37,2013-02-26 10:35:00,
2013-02-26 05:40:00,48.9,45.2,30.11,ENE,68,10.4,10.4,87,0.00,OVC,,0.00,WeatherDisplay:10.37,2013-02-26 10:40:00,
2013-02-26 05:46:00,49.1,45.4,30.11,NNE,22,9.2,9.2,87,0.00,OVC,,0.00,WeatherDisplay:10.37,2013-02-26 10:46:00,
2013-02-26 05:51:00,49.3,45.3,30.10,East,90,8.1,8.1,86,0.00,OVC,,0.00,WeatherDisplay:10.37,2013-02-26 10:51:00,
2013-02-26 05:56:00,49.3,45.3,30.10,ESE,112,12.7,12.7,86,0.00,OVC,,0.00,WeatherDisplay:10.37,2013-02-26 10:56:00,
2013-02-26 06:01:00,49.5,45.4,30.09,NNE,22,10.4,10.4,86,0.00,OVC,,0.00,WeatherDisplay:10.37,2013-02-26 11:01:00,
2013-02-26 06:06:00,49.6,45.9,30.10,ENE,68,10.4,10.4,87,0.00,-RA,,0.00,WeatherDisplay:10.37,2013-02-26 11:06:00,
2013-02-26 06:11:00,49.8,45.8,30.09,ENE,68,9.2,9.2,86,0.00,-RA,,0.00,WeatherDisplay:10.37,2013-02-26 11:11:00,
2013-02-26 06:16:00,50.0,46.3,30.09,NE,45,15.0,15.0,87,0.00,-RA,,0.00,WeatherDisplay:10.37,2013-02-26 11:16:00,
2013-02-26 06:21:00,50.0,46.3,30.09,East,90,6.9,8.5,87,0.00,-RA,,0.00,WeatherDisplay:10.37,2013-02-26 11:21:00,
2013-02-26 06:26:00,50.2,46.8,30.09,NE,45,6.9,6.9,88,0.00,-RA,,0.00,WeatherDisplay:10.37,2013-02-26 11:26:00,
2013-02-26 06:31:00,50.2,46.5,30.10,ENE,68,6.9,8.3,87,0.00,-RA,,0.00,WeatherDisplay:10.37,2013-02-26 11:31:00,
2013-02-26 06:36:00,50.4,46.9,30.10,NE,45,13.0,13.0,88,0.00,-RA,,0.00,WeatherDisplay:10.37,2013-02-26 11:36:00,
2013-02-26 06:41:00,50.5,47.1,30.09,NW,315,11.5,11.5,88,0.01,-RA,,0.01,WeatherDisplay:10.37,2013-02-26 11:41:00,
2013-02-26 06:46:00,50.7,47.3,30.10,ESE,112,9.2,9.2,88,0.01,-RA,,0.01,WeatherDisplay:10.37,2013-02-26 11:46:00,
2013-02-26 06:51:00,50.7,47.6,30.10,East,90,5.8,5.8,89,0.02,-RA,,0.02,WeatherDisplay:10.37,2013-02-26 11:51:00,
2013-02-26 06:56:00,50.9,47.8,30.10,ESE,112,10.4,10.4,89,0.02,-RA,,0.02,WeatherDisplay:10.37,2013-02-26 11:56:00,
2013-02-26 07:01:00,51.1,48.0,30.10,ENE,68,9.2,9.2,89,0.02,-RA,,0.02,WeatherDisplay:10.37,2013-02-26 12:01:00,
2013-02-26 07:06:00,51.3,48.1,30.09,East,90,6.9,6.9,89,0.02,-RA,,0.03,WeatherDisplay:10.37,2013-02-26 12:06:00,
2013-02-26 07:11:00,51.4,48.3,30.10,ENE,68,8.1,8.1,89,0.03,-RA,,0.03,WeatherDisplay:10.37,2013-02-26 12:11:00,
2013-02-26 07:16:00,51.6,48.5,30.10,NNE,22,5.9,5.9,89,0.03,-RA,,0.04,WeatherDisplay:10.37,2013-02-26 12:16:00,
2013-02-26 07:21:00,51.8,48.7,30.10,East,90,12.3,12.3,89,0.04,-RA,,0.05,WeatherDisplay:10.37,2013-02-26 12:21:00,
2013-02-26 07:26:00,51.8,49.3,30.10,ENE,68,9.2,9.2,91,0.06,-RA,,0.06,WeatherDisplay:10.37,2013-02-26 12:26:00,
2013-02-26 07:31:00,52.0,49.4,30.09,NE,45,8.1,8.1,91,0.06,-RA,,0.07,WeatherDisplay:10.37,2013-02-26 12:31:00,
2013-02-26 07:36:00,52.0,49.4,30.09,ESE,112,5.8,5.8,91,0.07,-RA,,0.08,WeatherDisplay:10.37,2013-02-26 12:36:00,
2013-02-26 07:41:00,52.2,49.6,30.09,SSE,158,9.0,9.0,91,0.07,-RA,,0.08,WeatherDisplay:10.37,2013-02-26 12:41:00,
2013-02-26 07:46:00,52.3,50.1,30.09,NNE,22,12.7,12.7,92,0.08,-RA,,0.09,WeatherDisplay:10.37,2013-02-26 12:46:00,
2013-02-26 07:51:00,52.5,50.3,30.09,ENE,68,7.4,7.4,92,0.08,-RA,,0.10,WeatherDisplay:10.37,2013-02-26 12:51:00,
2013-02-26 07:56:00,52.7,50.4,30.08,East,90,6.9,6.9,92,0.08,RA,,0.10,WeatherDisplay:10.37,2013-02-26 12:56:00,
2013-02-26 08:01:00,52.9,50.6,30.08,East,90,8.1,8.1,92,0.12,RA,,0.18,WeatherDisplay:10.37,2013-02-26 13:01:00,
2013-02-26 08:06:00,53.1,50.8,30.08,ENE,68,7.4,7.4,92,0.16,RA,,0.18,WeatherDisplay:10.37,2013-02-26 13:06:00,
2013-02-26 08:11:00,53.2,51.0,30.07,NW,315,10.4,10.4,92,0.18,RA,,0.21,WeatherDisplay:10.37,2013-02-26 13:11:00,
2013-02-26 08:16:00,53.4,51.2,30.07,NE,45,10.4,10.4,92,0.24,-RA,,0.28,WeatherDisplay:10.37,2013-02-26 13:16:00,
2013-02-26 08:21:00,53.6,51.6,30.07,East,90,9.2,9.2,93,0.24,-RA,,0.28,WeatherDisplay:10.37,2013-02-26 13:21:00,
2013-02-26 08:26:00,53.8,51.5,30.07,NE,45,11.6,11.6,92,0.24,-RA,,0.30,WeatherDisplay:10.37,2013-02-26 13:26:00,
2013-02-26 08:31:00,53.8,51.5,30.07,NNE,22,9.2,9.2,92,0.26,-RA,,0.32,WeatherDisplay:10.37,2013-02-26 13:31:00,
2013-02-26 08:36:00,54.0,51.7,30.08,NE,45,10.4,10.4,92,0.24,-RA,,0.32,WeatherDisplay:10.37,2013-02-26 13:36:00,
2013-02-26 08:41:00,54.3,52.0,30.08,ENE,68,9.2,9.2,92,0.26,-RA,,0.35,WeatherDisplay:10.37,2013-02-26 13:41:00,
2013-02-26 08:46:00,54.3,52.0,30.07,SE,135,5.8,6.0,92,0.26,-RA,,0.35,WeatherDisplay:10.37,2013-02-26 13:46:00,
2013-02-26 08:51:00,54.5,52.2,30.07,ENE,68,10.4,10.4,92,0.27,-RA,,0.37,WeatherDisplay:10.37,2013-02-26 13:51:00,
2013-02-26 08:56:00,54.7,52.4,30.07,ENE,68,5.8,5.8,92,0.27,-RA,,0.37,WeatherDisplay:10.37,2013-02-26 13:56:00,
2013-02-26 09:01:00,55.0,53.1,30.06,NE,45,14.0,14.0,93,0.28,-RA,,0.42,WeatherDisplay:10.37,2013-02-26 14:01:00,
2013-02-26 09:06:00,55.2,53.2,30.05,North,0,11.4,11.4,93,0.28,-RA,,0.46,WeatherDisplay:10.37,2013-02-26 14:06:00,
2013-02-26 09:11:00,55.2,52.9,30.04,ENE,68,10.4,10.4,92,0.28,-RA,,0.49,WeatherDisplay:10.37,2013-02-26 14:11:00,
2013-02-26 09:16:00,55.2,52.9,30.03,NE,45,9.2,9.2,92,0.21,-RA,,0.49,WeatherDisplay:10.37,2013-02-26 14:16:00,
2013-02-26 09:21:00,55.4,53.1,30.04,ENE,68,11.5,11.5,92,0.21,-RA,,0.49,WeatherDisplay:10.37,2013-02-26 14:21:00,
2013-02-26 09:26:00,55.8,53.8,30.05,East,90,10.4,10.4,93,0.25,-RA,,0.55,WeatherDisplay:10.37,2013-02-26 14:26:00,
2013-02-26 09:31:00,56.1,54.1,30.04,ESE,112,13.8,13.8,93,0.22,-RA,,0.55,WeatherDisplay:10.37,2013-02-26 14:31:00,
2013-02-26 09:36:00,56.5,54.5,30.04,NNE,22,8.5,8.5,93,0.28,-RA,,0.60,WeatherDisplay:10.37,2013-02-26 14:36:00,
2013-02-26 09:41:00,56.5,54.5,30.04,SE,135,10.4,10.4,93,0.28,-RA,,0.63,WeatherDisplay:10.37,2013-02-26 14:41:00,
2013-02-26 09:46:00,56.5,54.5,30.04,NE,45,11.5,11.5,93,0.32,-RA,,0.67,WeatherDisplay:10.37,2013-02-26 14:46:00,
2013-02-26 09:51:00,56.7,54.7,30.04,NE,45,9.2,9.2,93,0.35,-RA,,0.72,WeatherDisplay:10.37,2013-02-26 14:51:00,
2013-02-26 09:56:00,56.7,54.4,30.04,WSW,248,11.5,11.5,92,0.36,-RA,,0.73,WeatherDisplay:10.37,2013-02-26 14:56:00,
2013-02-26 10:01:00,56.8,54.5,30.03,NE,45,9.7,9.7,92,0.33,-RA,,0.77,WeatherDisplay:10.37,2013-02-26 15:01:00,
2013-02-26 10:06:00,56.8,54.5,30.03,ENE,68,9.2,9.2,92,0.33,-RA,,0.79,WeatherDisplay:10.37,2013-02-26 15:06:00,
2013-02-26 10:11:00,57.2,54.9,30.02,NE,45,11.5,11.5,92,0.33,RA,,0.84,WeatherDisplay:10.37,2013-02-26 15:11:00,
2013-02-26 10:16:00,57.2,54.9,30.02,SSE,158,6.9,6.9,92,0.37,RA,,0.85,WeatherDisplay:10.37,2013-02-26 15:16:00,
2013-02-26 10:21:00,57.2,54.9,30.01,North,0,8.1,8.1,92,0.39,RA,,0.87,WeatherDisplay:10.37,2013-02-26 15:21:00,
2013-02-26 10:26:00,57.0,54.7,30.01,NNE,22,8.1,8.1,92,0.37,RA,,0.91,WeatherDisplay:10.37,2013-02-26 15:26:00,
2013-02-26 10:31:00,57.2,54.9,30.01,NE,45,8.1,8.1,92,0.38,RA,,0.93,WeatherDisplay:10.37,2013-02-26 15:31:00,
2013-02-26 10:36:00,57.2,54.9,30.01,ENE,68,11.5,11.5,92,0.37,RA,,0.93,WeatherDisplay:10.37,2013-02-26 15:36:00,
2013-02-26 10:41:00,57.2,54.9,30.00,NNE,22,6.9,6.9,92,0.31,RA,,0.94,WeatherDisplay:10.37,2013-02-26 15:41:00,
2013-02-26 10:46:00,57.4,55.4,29.99,ESE,112,10.4,10.4,93,0.28,RA,,0.95,WeatherDisplay:10.37,2013-02-26 15:46:00,
2013-02-26 10:51:00,57.6,55.6,29.99,ENE,68,9.2,9.2,93,0.26,RA,,0.96,WeatherDisplay:10.37,2013-02-26 15:51:00,
2013-02-26 10:56:00,57.7,55.7,29.99,SSE,158,11.8,11.8,93,0.25,RA,,0.98,WeatherDisplay:10.37,2013-02-26 15:56:00,
2013-02-26 11:01:00,57.9,55.9,29.98,ENE,68,8.5,8.5,93,0.27, +RA,,1.02,WeatherDisplay:10.37,2013-02-26 16:01:00,
2013-02-26 11:06:00,58.1,56.1,29.99,ENE,68,10.4,10.4,93,0.28, +RA,,1.07,WeatherDisplay:10.37,2013-02-26 16:06:00,
2013-02-26 11:11:00,58.3,56.3,29.98,SSE,158,10.4,10.4,93,0.30, +RA,,1.13,WeatherDisplay:10.37,2013-02-26 16:11:00,
2013-02-26 11:16:00,58.3,56.3,29.99,ENE,68,8.1,8.1,93,0.30, +RA,,1.16,WeatherDisplay:10.37,2013-02-26 16:16:00,
2013-02-26 11:21:00,58.3,56.3,29.98,ENE,68,16.1,16.1,93,0.33, +RA,,1.23,WeatherDisplay:10.37,2013-02-26 16:21:00,
2013-02-26 11:26:00,58.5,56.4,29.98,NE,45,6.2,6.2,93,0.35, +RA,,1.25,WeatherDisplay:10.37,2013-02-26 16:26:00,
2013-02-26 11:31:00,58.6,56.6,29.97,ESE,112,6.9,6.9,93,0.44, +RA,,1.36,WeatherDisplay:10.37,2013-02-26 16:31:00,
2013-02-26 11:36:00,58.6,56.6,29.97,NE,45,9.2,9.2,93,0.54, +RA,,1.47,WeatherDisplay:10.37,2013-02-26 16:36:00,
2013-02-26 11:41:00,58.6,56.6,29.96,SSE,158,8.1,8.1,93,0.61, +RA,,1.54,WeatherDisplay:10.37,2013-02-26 16:41:00,
2013-02-26 11:46:00,58.8,56.8,29.95,South,180,6.9,6.9,93,0.66, +RA,,1.61,WeatherDisplay:10.37,2013-02-26 16:46:00,
2013-02-26 11:51:00,59.0,57.0,29.94,ENE,68,9.0,9.0,93,0.69, +RA,,1.65,WeatherDisplay:10.37,2013-02-26 16:51:00,
2013-02-26 11:56:00,59.0,57.0,29.93,ENE,68,4.6,4.6,93,0.71, +RA,,1.68,WeatherDisplay:10.37,2013-02-26 16:56:00,
2013-02-26 12:01:00,59.4,57.3,29.93,NW,315,8.1,8.1,93,0.72, +RA,,1.72,WeatherDisplay:10.37,2013-02-26 17:01:00,
2013-02-26 12:06:00,59.5,57.5,29.92,WSW,248,6.7,6.7,93,0.72, +RA,,1.79,WeatherDisplay:10.37,2013-02-26 17:06:00,
2013-02-26 12:11:00,59.9,58.5,29.91,SSW,202,8.1,8.1,95,0.77, +RA,,1.87,WeatherDisplay:10.37,2013-02-26 17:11:00,
2013-02-26 12:16:00,60.1,58.6,29.90,SW,225,6.9,6.9,95,0.80, +RA,,1.93,WeatherDisplay:10.37,2013-02-26 17:16:00,
2013-02-26 12:21:00,60.1,58.3,29.90,East,90,5.8,5.8,94,0.81, +RA,,1.99,WeatherDisplay:10.37,2013-02-26 17:21:00,
2013-02-26 12:26:00,59.9,58.2,29.89,SSE,158,10.4,10.4,94,0.91, +RA,,2.12,WeatherDisplay:10.37,2013-02-26 17:26:00,
2013-02-26 12:31:00,60.1,58.3,29.89,ENE,68,8.5,8.5,94,0.91, +RA,,2.20,WeatherDisplay:10.37,2013-02-26 17:31:00,
2013-02-26 12:36:00,60.3,58.5,29.88,East,90,9.2,9.2,94,0.88, +RA,,2.23,WeatherDisplay:10.37,2013-02-26 17:36:00,
2013-02-26 12:41:00,60.3,58.5,29.89,South,180,9.2,9.2,94,0.89, +RA,,2.35,WeatherDisplay:10.37,2013-02-26 17:41:00,
2013-02-26 12:46:00,60.3,58.5,29.88,ESE,112,7.8,7.8,94,0.84, +RA,,2.39,WeatherDisplay:10.37,2013-02-26 17:46:00,
2013-02-26 12:51:00,60.4,58.7,29.88,WNW,292,10.4,10.4,94,0.78, +RA,,2.43,WeatherDisplay:10.37,2013-02-26 17:51:00,
2013-02-26 12:56:00,60.6,58.9,29.88,SSE,158,6.9,6.9,94,0.78, +RA,,2.46,WeatherDisplay:10.37,2013-02-26 17:56:00,
2013-02-26 13:01:00,60.8,59.1,29.89,SW,225,7.1,7.1,94,0.82, +RA,,2.52,WeatherDisplay:10.37,2013-02-26 18:01:00,
2013-02-26 13:06:00,60.8,59.1,29.88,East,90,8.1,9.2,94,0.85, +RA,,2.60,WeatherDisplay:10.37,2013-02-26 18:06:00,
2013-02-26 13:11:00,61.2,59.4,29.87,SW,225,11.5,11.5,94,0.78,RA,,2.66,WeatherDisplay:10.37,2013-02-26 18:11:00,
2013-02-26 13:16:00,61.3,59.6,29.87,SSE,158,10.4,10.4,94,0.76,RA,,2.66,WeatherDisplay:10.37,2013-02-26 18:16:00,
2013-02-26 13:21:00,61.5,59.8,29.85,SE,135,8.1,8.1,94,0.75,RA,,2.72,WeatherDisplay:10.37,2013-02-26 18:21:00,
2013-02-26 13:26:00,61.7,60.0,29.85,SSE,158,10.4,14.3,94,0.64,RA,,2.74,WeatherDisplay:10.37,2013-02-26 18:26:00,
2013-02-26 13:31:00,62.2,60.5,29.85,East,90,10.4,10.4,94,0.62,RA,,2.80,WeatherDisplay:10.37,2013-02-26 18:31:00,
2013-02-26 13:36:00,62.2,60.5,29.86,SSE,158,11.5,11.5,94,0.60,RA,,2.85,WeatherDisplay:10.37,2013-02-26 18:36:00,
2013-02-26 13:41:00,62.4,60.7,29.85,East,90,9.2,9.2,94,0.55,RA,,2.87,WeatherDisplay:10.37,2013-02-26 18:41:00,
2013-02-26 13:46:00,62.2,60.5,29.84,SSW,202,9.2,9.2,94,0.61,RA,,3.03,WeatherDisplay:10.37,2013-02-26 18:46:00,
2013-02-26 13:51:00,62.2,60.5,29.85,North,0,5.8,5.9,94,0.60,RA,,3.03,WeatherDisplay:10.37,2013-02-26 18:51:00,
2013-02-26 13:56:00,62.1,60.0,29.85,SSE,158,9.9,9.9,93,0.57,RA,,3.03,WeatherDisplay:10.37,2013-02-26 18:56:00,
2013-02-26 14:01:00,61.9,59.8,29.85,SSE,158,8.1,8.1,93,0.53,-RA,,3.05,WeatherDisplay:10.37,2013-02-26 19:01:00,
2013-02-26 14:06:00,62.1,60.0,29.84,SSE,158,9.2,9.2,93,0.45,-RA,,3.05,WeatherDisplay:10.37,2013-02-26 19:06:00,
2013-02-26 14:11:00,62.2,60.2,29.85,SE,135,6.9,6.9,93,0.42,-RA,,3.05,WeatherDisplay:10.37,2013-02-26 19:11:00,
2013-02-26 14:16:00,62.4,60.7,29.84,SE,135,8.1,8.1,94,0.43,-RA,,3.11,WeatherDisplay:10.37,2013-02-26 19:16:00,
2013-02-26 14:21:00,62.4,60.4,29.84,SE,135,6.9,6.9,93,0.43,-RA,,3.18,WeatherDisplay:10.37,2013-02-26 19:21:00,
2013-02-26 14:26:00,62.6,60.8,29.84,South,180,8.3,8.3,94,0.52,-RA,,3.26,WeatherDisplay:10.37,2013-02-26 19:26:00,
2013-02-26 14:31:00,62.8,61.0,29.84,South,180,9.2,9.2,94,0.51, +RA,,3.28,WeatherDisplay:10.37,2013-02-26 19:31:00,
2013-02-26 14:36:00,63.0,61.2,29.84,ESE,112,6.9,6.9,94,0.44, +RA,,3.28,WeatherDisplay:10.37,2013-02-26 19:36:00,
2013-02-26 14:41:00,63.3,61.6,29.83,SSW,202,8.7,8.7,94,0.41, +RA,,3.28,WeatherDisplay:10.37,2013-02-26 19:41:00,
2013-02-26 14:47:00,63.7,61.9,29.83,SW,225,10.7,10.7,94,0.28, +RA,,3.28,WeatherDisplay:10.37,2013-02-26 19:47:00,
2013-02-26 14:52:00,63.7,61.9,29.83,SE,135,9.2,9.2,94,0.25,-RA,,3.28,WeatherDisplay:10.37,2013-02-26 19:52:00,
2013-02-26 14:57:00,63.9,61.8,29.83,ENE,68,10.4,10.4,93,0.25,-RA,,3.28,WeatherDisplay:10.37,2013-02-26 19:57:00,
2013-02-26 15:02:00,64.2,62.2,29.82,SE,135,8.1,8.1,93,0.23,-RA,,3.28,WeatherDisplay:10.37,2013-02-26 20:02:00,
2013-02-26 15:07:00,64.6,62.5,29.82,SE,135,6.9,6.9,93,0.23,-RA,,3.28,WeatherDisplay:10.37,2013-02-26 20:07:00,
2013-02-26 15:12:00,64.6,62.5,29.82,SE,135,6.2,6.2,93,0.23,OVC,,3.28,WeatherDisplay:10.37,2013-02-26 20:12:00,
2013-02-26 15:17:00,64.8,62.7,29.82,SSW,202,9.2,9.2,93,0.19,OVC,,3.28,WeatherDisplay:10.37,2013-02-26 20:17:00,
2013-02-26 15:22:00,65.1,63.0,29.81,ESE,112,8.1,8.1,93,0.15,OVC,,3.28,WeatherDisplay:10.37,2013-02-26 20:22:00,
2013-02-26 15:27:00,65.5,63.1,29.80,SSW,202,6.7,6.7,92,0.05,OVC,,3.28,WeatherDisplay:10.37,2013-02-26 20:27:00,
2013-02-26 15:32:00,65.5,62.8,29.80,SSE,158,8.1,8.1,91,0.00,OVC,,3.28,WeatherDisplay:10.37,2013-02-26 20:32:00,
2013-02-26 15:37:00,65.7,63.0,29.79,SSE,158,6.7,6.7,91,0.00,OVC,,3.28,WeatherDisplay:10.37,2013-02-26 20:37:00,
2013-02-26 15:42:00,65.8,63.1,29.79,SW,225,9.2,9.2,91,0.00,OVC,,3.28,WeatherDisplay:10.37,2013-02-26 20:42:00,
2013-02-26 15:47:00,65.8,63.1,29.79,SSW,202,5.8,5.8,91,0.00,OVC,,3.28,WeatherDisplay:10.37,2013-02-26 20:47:00,
2013-02-26 15:52:00,65.8,63.1,29.78,NNW,338,5.8,5.8,91,0.00,OVC,,3.28,WeatherDisplay:10.37,2013-02-26 20:52:00,
2013-02-26 15:57:00,65.8,63.1,29.78,ENE,68,3.5,6.7,91,0.00,OVC,,3.28,WeatherDisplay:10.37,2013-02-26 20:57:00,
2013-02-26 16:02:00,66.0,63.3,29.78,SE,135,5.4,5.4,91,0.00,OVC,,3.28,WeatherDisplay:10.37,2013-02-26 21:02:00,
2013-02-26 16:07:00,65.8,62.8,29.77,SSW,202,8.1,8.1,90,0.00,OVC,,3.28,WeatherDisplay:10.37,2013-02-26 21:07:00,
2013-02-26 16:12:00,65.7,62.3,29.77,SSW,202,4.6,4.6,89,0.00,OVC,,3.28,WeatherDisplay:10.37,2013-02-26 21:12:00,
2013-02-26 16:17:00,65.5,62.2,29.77,SE,135,6.9,6.9,89,0.00,OVC,,3.28,WeatherDisplay:10.37,2013-02-26 21:17:00,
2013-02-26 16:22:00,65.5,62.2,29.77,East,90,4.6,4.6,89,0.00,OVC,,3.28,WeatherDisplay:10.37,2013-02-26 21:22:00,
2013-02-26 16:27:00,65.5,62.2,29.77,South,180,6.2,6.2,89,0.00,OVC,,3.28,WeatherDisplay:10.37,2013-02-26 21:27:00,
2013-02-26 16:32:00,65.3,62.0,29.77,South,180,6.9,6.9,89,0.00,OVC,,3.28,WeatherDisplay:10.37,2013-02-26 21:32:00,
2013-02-26 16:37:00,65.3,62.0,29.77,SE,135,8.1,8.1,89,0.00,OVC,,3.28,WeatherDisplay:10.37,2013-02-26 21:37:00,
2013-02-26 16:42:00,65.1,61.8,29.77,SW,225,9.2,9.2,89,0.00,OVC,,3.28,WeatherDisplay:10.37,2013-02-26 21:42:00,
2013-02-26 16:47:00,65.1,61.8,29.77,South,180,6.9,6.9,89,0.00,OVC,,3.28,WeatherDisplay:10.37,2013-02-26 21:47:00,
2013-02-26 16:52:00,65.1,61.8,29.77,SSW,202,6.2,6.2,89,0.00,OVC,,3.28,WeatherDisplay:10.37,2013-02-26 21:52:00,
2013-02-26 16:57:00,65.1,61.8,29.77,SSW,202,5.8,5.8,89,0.00,OVC,,3.28,WeatherDisplay:10.37,2013-02-26 21:57:00,
2013-02-26 17:02:00,65.3,62.0,29.77,SSE,158,4.6,4.6,89,0.00,OVC,,3.28,WeatherDisplay:10.37,2013-02-26 22:02:00,
2013-02-26 17:07:00,65.1,61.8,29.77,SSE,158,4.6,4.6,89,0.00,OVC,,3.28,WeatherDisplay:10.37,2013-02-26 22:07:00,
2013-02-26 17:12:00,65.1,61.5,29.77,SSE,158,6.9,6.9,88,0.00,OVC,,3.28,WeatherDisplay:10.37,2013-02-26 22:12:00,
2013-02-26 17:17:00,65.1,61.5,29.77,SSE,158,4.7,4.7,88,0.00,OVC,,3.28,WeatherDisplay:10.37,2013-02-26 22:17:00,
2013-02-26 17:22:00,64.9,61.3,29.77,South,180,4.9,4.9,88,0.00,OVC,,3.28,WeatherDisplay:10.37,2013-02-26 22:22:00,
2013-02-26 17:27:00,64.9,61.3,29.77,SSW,202,8.1,8.1,88,0.00,OVC,,3.28,WeatherDisplay:10.37,2013-02-26 22:27:00,
2013-02-26 17:32:00,64.9,61.3,29.77,South,180,5.8,5.8,88,0.00,OVC,,3.28,WeatherDisplay:10.37,2013-02-26 22:32:00,
2013-02-26 17:37:00,64.8,61.1,29.77,SSE,158,6.9,6.9,88,0.00,OVC,,3.28,WeatherDisplay:10.37,2013-02-26 22:37:00,
2013-02-26 17:42:00,64.8,61.1,29.77,SSE,158,8.1,8.1,88,0.00,OVC,,3.28,WeatherDisplay:10.37,2013-02-26 22:42:00,
2013-02-26 17:47:00,64.8,61.4,29.77,SW,225,6.9,6.9,89,0.00,OVC,,3.28,WeatherDisplay:10.37,2013-02-26 22:47:00,
2013-02-26 17:52:00,64.8,61.4,29.76,SSE,158,4.6,4.6,89,0.00,OVC,,3.28,WeatherDisplay:10.37,2013-02-26 22:52:00,
2013-02-26 17:57:00,64.8,61.4,29.77,SSW,202,3.5,3.5,89,0.00,OVC,,3.28,WeatherDisplay:10.37,2013-02-26 22:57:00,
2013-02-26 18:02:00,64.9,61.9,29.76,SSE,158,5.8,5.8,90,0.00,OVC,,3.28,WeatherDisplay:10.37,2013-02-26 23:02:00,
2013-02-26 18:07:00,65.1,62.1,29.76,SW,225,4.6,4.6,90,0.00,OVC,,3.28,WeatherDisplay:10.37,2013-02-26 23:07:00,
2013-02-26 18:12:00,65.1,62.1,29.76,SSE,158,3.5,3.5,90,0.00,OVC,,3.28,WeatherDisplay:10.37,2013-02-26 23:12:00,
2013-02-26 18:17:00,65.1,62.1,29.76,SSE,158,3.5,3.5,90,0.00,OVC,,3.28,WeatherDisplay:10.37,2013-02-26 23:17:00,
2013-02-26 18:22:00,65.1,62.1,29.76,SE,135,4.6,4.6,90,0.00,OVC,,3.28,WeatherDisplay:10.37,2013-02-26 23:22:00,
2013-02-26 18:27:00,65.3,62.3,29.76,SSE,158,2.3,2.3,90,0.00,OVC,,3.28,WeatherDisplay:10.37,2013-02-26 23:27:00,
2013-02-26 18:32:00,65.5,62.5,29.76,SSE,158,3.5,3.5,90,0.00,OVC,,3.28,WeatherDisplay:10.37,2013-02-26 23:32:00,
2013-02-26 18:37:00,65.5,62.5,29.76,South,180,4.6,4.6,90,0.00,OVC,,3.28,WeatherDisplay:10.37,2013-02-26 23:37:00,
2013-02-26 18:42:00,65.7,63.0,29.76,SW,225,2.4,2.4,91,0.00,OVC,,3.28,WeatherDisplay:10.37,2013-02-26 23:42:00,
2013-02-26 18:47:00,65.8,63.5,29.76,West,270,5.8,5.8,92,0.00,OVC,,3.28,WeatherDisplay:10.37,2013-02-26 23:47:00,
2013-02-26 18:52:00,65.8,63.5,29.76,South,180,5.8,5.8,92,0.00,OVC,,3.28,WeatherDisplay:10.37,2013-02-26 23:52:00,
2013-02-26 18:57:00,66.0,63.6,29.76,South,180,5.8,5.8,92,0.00,OVC,,3.28,WeatherDisplay:10.37,2013-02-26 23:57:00,
2013-02-26 19:02:00,66.2,63.5,29.77,SSW,202,4.3,4.3,91,0.00,OVC,,3.28,WeatherDisplay:10.37,2013-02-27 00:02:00,
2013-02-26 19:07:00,66.2,63.5,29.76,SE,135,4.6,4.6,91,0.00,OVC,,3.28,WeatherDisplay:10.37,2013-02-27 00:07:00,
2013-02-26 19:12:00,66.2,63.5,29.77,SSE,158,6.7,6.7,91,0.00,OVC,,3.28,WeatherDisplay:10.37,2013-02-27 00:12:00,
2013-02-26 19:17:00,66.4,63.7,29.77,WSW,248,6.9,6.9,91,0.00,OVC,,3.28,WeatherDisplay:10.37,2013-02-27 00:17:00,
2013-02-26 19:22:00,66.4,63.7,29.77,SW,225,6.9,6.9,91,0.00,OVC,,3.28,WeatherDisplay:10.37,2013-02-27 00:22:00,
2013-02-26 19:27:00,66.6,63.9,29.77,WSW,248,8.1,8.1,91,0.00,OVC,,3.28,WeatherDisplay:10.37,2013-02-27 00:27:00,
2013-02-26 19:32:00,66.6,63.9,29.77,SSW,202,6.9,6.9,91,0.00,OVC,,3.28,WeatherDisplay:10.37,2013-02-27 00:32:00,
2013-02-26 19:37:00,66.6,63.9,29.77,SW,225,5.8,5.8,91,0.00,OVC,,3.28,WeatherDisplay:10.37,2013-02-27 00:37:00,
2013-02-26 19:42:00,66.6,63.5,29.77,SW,225,6.2,6.2,90,0.00,OVC,,3.28,WeatherDisplay:10.37,2013-02-27 00:42:00,
2013-02-26 19:47:00,66.6,63.5,29.77,SSW,202,8.1,8.1,90,0.00,OVC,,3.28,WeatherDisplay:10.37,2013-02-27 00:47:00,
2013-02-26 19:52:00,66.6,63.5,29.77,SW,225,6.2,6.2,90,0.01,RA,,3.29,WeatherDisplay:10.37,2013-02-27 00:52:00,
2013-02-26 19:57:00,66.6,63.2,29.77,SW,225,8.1,8.1,89,0.01,RA,,3.29,WeatherDisplay:10.37,2013-02-27 00:57:00,
2013-02-26 20:02:00,66.4,63.0,29.77,SW,225,10.4,10.4,89,0.01,BKN,,3.29,WeatherDisplay:10.37,2013-02-27 01:02:00,
2013-02-26 20:07:00,66.2,62.9,29.77,SSE,158,9.2,9.2,89,0.01,BKN,,3.29,WeatherDisplay:10.37,2013-02-27 01:07:00,
2013-02-26 20:12:00,66.2,62.9,29.77,SW,225,6.4,6.4,89,0.01,BKN,,3.29,WeatherDisplay:10.37,2013-02-27 01:12:00,
2013-02-26 20:17:00,66.2,62.5,29.77,SW,225,8.1,8.1,88,0.01,BKN,,3.29,WeatherDisplay:10.37,2013-02-27 01:17:00,
2013-02-26 20:22:00,66.0,62.4,29.77,South,180,5.8,9.7,88,0.01,BKN,,3.29,WeatherDisplay:10.37,2013-02-27 01:22:00,
2013-02-26 20:27:00,65.8,62.2,29.77,SSW,202,6.9,6.9,88,0.01,BKN,,3.29,WeatherDisplay:10.37,2013-02-27 01:27:00,
2013-02-26 20:32:00,65.8,62.2,29.77,SW,225,9.2,9.2,88,0.01,BKN,,3.29,WeatherDisplay:10.37,2013-02-27 01:32:00,
2013-02-26 20:37:00,65.7,62.0,29.77,SW,225,5.8,5.8,88,0.01,BKN,,3.29,WeatherDisplay:10.37,2013-02-27 01:37:00,
2013-02-26 20:42:00,65.7,62.0,29.77,WSW,248,6.9,6.9,88,0.01,BKN,,3.29,WeatherDisplay:10.37,2013-02-27 01:42:00,
2013-02-26 20:47:00,65.5,61.8,29.78,WSW,248,6.9,6.9,88,0.01,BKN,,3.29,WeatherDisplay:10.37,2013-02-27 01:47:00,
2013-02-26 20:52:00,65.5,61.8,29.77,SSW,202,10.4,10.4,88,0.00,BKN,,3.29,WeatherDisplay:10.37,2013-02-27 01:52:00,
2013-02-26 20:57:00,65.3,62.0,29.78,South,180,11.5,11.5,89,0.00,BKN,,3.29,WeatherDisplay:10.37,2013-02-27 01:57:00,
2013-02-26 21:02:00,65.1,61.5,29.78,WSW,248,10.4,10.4,88,0.00,BKN,,3.29,WeatherDisplay:10.37,2013-02-27 02:02:00,
2013-02-26 21:07:00,65.1,61.5,29.78,SW,225,8.1,8.1,88,0.00,BKN,,3.29,WeatherDisplay:10.37,2013-02-27 02:07:00,
2013-02-26 21:13:00,65.1,61.2,29.78,WSW,248,8.5,8.5,87,0.00,SCT,,3.29,WeatherDisplay:10.37,2013-02-27 02:13:00,
2013-02-26 21:18:00,64.8,60.8,29.77,SSW,202,7.6,7.6,87,0.00,SCT,,3.29,WeatherDisplay:10.37,2013-02-27 02:18:00,
2013-02-26 21:23:00,64.8,60.8,29.78,SSW,202,4.6,4.7,87,0.00,SCT,,3.29,WeatherDisplay:10.37,2013-02-27 02:23:00,
2013-02-26 21:28:00,64.6,60.6,29.77,SSW,202,4.6,4.6,87,0.00,SCT,,3.29,WeatherDisplay:10.37,2013-02-27 02:28:00,
2013-02-26 21:33:00,64.4,60.4,29.78,SW,225,8.1,8.1,87,0.00,SCT,,3.29,WeatherDisplay:10.37,2013-02-27 02:33:00,
2013-02-26 21:38:00,64.2,60.3,29.78,WSW,248,6.9,6.9,87,0.00,SCT,,3.29,WeatherDisplay:10.37,2013-02-27 02:38:00,
2013-02-26 21:43:00,64.0,60.1,29.78,SW,225,5.8,6.7,87,0.00,SCT,,3.29,WeatherDisplay:10.37,2013-02-27 02:43:00,
2013-02-26 21:48:00,63.9,59.9,29.78,SW,225,9.2,9.2,87,0.00,SCT,,3.29,WeatherDisplay:10.37,2013-02-27 02:48:00,
2013-02-26 21:53:00,63.9,59.9,29.78,SSW,202,5.9,5.9,87,0.00,SCT,,3.29,WeatherDisplay:10.37,2013-02-27 02:53:00,
2013-02-26 21:58:00,63.7,59.7,29.78,SSW,202,4.6,4.6,87,0.00,SCT,,3.29,WeatherDisplay:10.37,2013-02-27 02:58:00,
2013-02-26 22:03:00,63.7,59.7,29.78,WSW,248,5.2,5.2,87,0.00,CLR,,3.29,WeatherDisplay:10.37,2013-02-27 03:03:00,
2013-02-26 22:08:00,63.5,59.6,29.78,West,270,6.9,6.9,87,0.00,CLR,,3.29,WeatherDisplay:10.37,2013-02-27 03:08:00,
2013-02-26 22:13:00,63.3,59.4,29.78,SW,225,4.6,4.6,87,0.00,CLR,,3.29,WeatherDisplay:10.37,2013-02-27 03:13:00,
2013-02-26 22:18:00,63.1,58.9,29.79,SW,225,4.6,4.6,86,0.00,CLR,,3.29,WeatherDisplay:10.37,2013-02-27 03:18:00,
2013-02-26 22:23:00,63.0,58.7,29.79,SSW,202,8.5,8.5,86,0.00,CLR,,3.29,WeatherDisplay:10.37,2013-02-27 03:23:00,
2013-02-26 22:28:00,63.0,58.7,29.78,SW,225,6.4,6.4,86,0.00,CLR,,3.29,WeatherDisplay:10.37,2013-02-27 03:28:00,
2013-02-26 22:33:00,62.8,58.2,29.79,SW,225,4.6,5.2,85,0.00,CLR,,3.29,WeatherDisplay:10.37,2013-02-27 03:33:00,
2013-02-26 22:38:00,62.8,58.2,29.78,SW,225,5.8,5.8,85,0.00,CLR,,3.29,WeatherDisplay:10.37,2013-02-27 03:38:00,
2013-02-26 22:43:00,62.6,58.0,29.79,SSW,202,3.5,3.5,85,0.00,CLR,,3.29,WeatherDisplay:10.37,2013-02-27 03:43:00,
2013-02-26 22:48:00,62.6,58.0,29.79,SW,225,5.8,5.8,85,0.00,CLR,,3.29,WeatherDisplay:10.37,2013-02-27 03:48:00,
2013-02-26 22:54:00,62.4,57.5,29.78,SW,225,5.8,5.8,84,0.00,CLR,,3.29,WeatherDisplay:10.37,2013-02-27 03:54:00,
2013-02-26 22:59:00,62.4,57.5,29.78,SW,225,4.6,4.6,84,0.00,CLR,,3.29,WeatherDisplay:10.37,2013-02-27 03:59:00,
2013-02-26 23:04:00,62.4,57.5,29.79,SW,225,4.6,4.6,84,0.00,CLR,,3.29,WeatherDisplay:10.37,2013-02-27 04:04:00,
2013-02-26 23:09:00,62.2,57.3,29.79,WSW,248,3.5,3.5,84,0.00,CLR,,3.29,WeatherDisplay:10.37,2013-02-27 04:09:00,
2013-02-26 23:14:00,62.2,57.3,29.79,SW,225,4.6,4.6,84,0.00,CLR,,3.29,WeatherDisplay:10.37,2013-02-27 04:14:00,
2013-02-26 23:19:00,62.1,56.8,29.79,WSW,248,5.8,5.8,83,0.00,CLR,,3.29,WeatherDisplay:10.37,2013-02-27 04:19:00,
2013-02-26 23:24:00,62.1,56.8,29.78,SW,225,4.6,4.6,83,0.00,CLR,,3.29,WeatherDisplay:10.37,2013-02-27 04:24:00,
2013-02-26 23:29:00,61.9,56.7,29.78,West,270,4.6,4.6,83,0.00,CLR,,3.29,WeatherDisplay:10.37,2013-02-27 04:29:00,
2013-02-26 23:34:00,61.7,56.5,29.78,SSW,202,3.5,3.5,83,0.00,CLR,,3.29,WeatherDisplay:10.37,2013-02-27 04:34:00,
2013-02-26 23:39:00,61.5,56.3,29.78,WSW,248,5.8,5.8,83,0.00,CLR,,3.29,WeatherDisplay:10.37,2013-02-27 04:39:00,
2013-02-26 23:44:00,61.5,56.3,29.78,WSW,248,2.4,2.4,83,0.00,CLR,,3.29,WeatherDisplay:10.37,2013-02-27 04:44:00,
2013-02-26 23:49:00,61.5,56.6,29.78,SW,225,4.6,4.6,84,0.00,CLR,,3.29,WeatherDisplay:10.37,2013-02-27 04:49:00,
2013-02-26 23:54:00,61.3,56.5,29.78,WSW,248,3.1,3.1,84,0.00,CLR,,3.29,WeatherDisplay:10.37,2013-02-27 04:54:00,
2013-02-26 23:59:00,61.2,56.3,29.79,NW,315,2.3,4.0,84,0.00,CLR,,3.29,WeatherDisplay:10.37,2013-02-27 04:59:00,